Regional Weather Roundup
Issued by NWS Charleston, WV

Home | Current Version | Previous Version | Graphics & Text | Print | Product List | Glossary Off
Versions: 1 2 3 4 5 6 7 8 9 10 11 12 13 14 15 16 17 18 19 20 21 22 23 24 25 26 27 28 29 30 31 32 33 34 35 36 37 38 39 40 41 42 43 44 45 46 47 48 49 50

000
ASUS41 KRLX 271310
RWRRLX
West Virginia Regional Weather Roundup
National Weather Service Charleston WV
800 AM EST THU NOV 27 2014

Note: "fair" indicates few or no clouds below 12,000 feet with no
significant weather and/or obstructions to visibility.

WVZ003-271400-
Northern Panhandle of West Virginia

CITY           SKY/WX    TMP DP  RH WIND       PRES   REMARKS
WHEELING       CLOUDY    31  26  82 NW6       30.05R
$$

WVZ009-271400-
Northwest West Virginia

CITY           SKY/WX    TMP DP  RH WIND       PRES   REMARKS
PARKERSBURG    MOCLDY    33  26  75 NW7       30.11R
$$

WVZ006-271400-
Western West Virginia

CITY           SKY/WX    TMP DP  RH WIND       PRES   REMARKS
HUNTINGTON     MOCLDY    31  25  78 NW5       30.13R
$$

WVZ015-271400-
West Central West Virginia

CITY           SKY/WX    TMP DP  RH WIND       PRES   REMARKS
CHARLESTON     CLOUDY    35  33  92 W6        30.09R FOG
$$

WVZ022-031-271400-
North Central West Virginia

CITY           SKY/WX    TMP DP  RH WIND       PRES   REMARKS
CLARKSBURG     CLOUDY    33  32  96 CALM      30.04R FOG
MORGANTOWN     CLOUDY    33  29  85 CALM      30.04R FOG
$$

WVZ025-035-042-045-271400-
Southern West Virginia

CITY           SKY/WX    TMP DP  RH WIND       PRES   REMARKS
BECKLEY        LGT SNOW  31  29  92 NW9       30.00R VSB 1
LOGAN          SNOW      32  32 100 NW6       30.07R VSB 1/4
BLUEFIELD      CLOUDY    33  29  85 NW7       29.99R
LEWISBURG      CLOUDY    34  33  95 CALM      29.98S FOG
$$

WVZ047-271400-
Northern Mountains of West Virginia

CITY           SKY/WX    TMP DP  RH WIND       PRES   REMARKS
ELKINS         CLOUDY    32  32 100 CALM      30.01R FOG
$$

WVZ052-271400-
Eastern Panhandle of West Virginia

CITY           SKY/WX    TMP DP  RH WIND       PRES   REMARKS
MARTINSBURG    CLOUDY    33  30  88 CALM      30.03R FOG
PETERSBURG     FOG       31  30  96 CALM      30.04R VSB 1/4
$$


USA.gov is the U.S. government's official web portal to all federal, state and local government web resources and services.